sat.trackr.live / text

‹ back to catalog

STARLINK-3415

NORAD 51472 · 2022-010S

PAYLOAD ACTIVE UNKNOWN

§ Identity

Operator
Country
US
Launch date
2022-02-03
Launch site
AFETR
Launch vehicle
Mass (kg)
RCS (m²)

Purposes: comms

External: N2YO · Heavens-Above · Gunter

§ Orbital elements

Epoch: 2026-05-25T02:42:01.703808Z

Period
95.44 min
Inclination
53.2135°
Eccentricity
0.0001519
Mean motion
15.08847626 rev/d
Perigee alt
538.7 km
Apogee alt
540.8 km
Semi-major
6,917.9 km
B*
1.2232e-4
RAAN
295.9736°
Arg perigee
90.0580°
Mean anomaly
270.0586°
Rev number
23,836

§ Raw data

STARLINK-34151 51472U 22010S   26145.11251972  .00001660  00000+0  12232-3 0  99952 51472  53.2135 295.9736 0001519  90.0580 270.0586 15.08847626238366

JSON: /api/v1/satellites/51472 · /tle

For live sub-satellite position, see the globe view (requires WebGL).

§ Visibility from observer

Set your observer location to see the next 7 days of passes ≥ 10°. The values pass through the URL so the page stays shareable.

No JS? Fill the form by hand. The geolocation button needs JavaScript.